This is the latest recevied weather packets stored in our database for station/object kj4yre. If no packets are shown the sender has not sent any weather packets the latest 10 day(s).
| Time | Temp. | Humidity | Pressure | Rain* | Wind** | Luminosity | Snow |
|---|---|---|---|---|---|---|---|
| 1778166605 | 12.78° C | 95% | 1012.6 hPa | 0 mm | - | - | - |
| 1778166007 | 13.33° C | 96% | 1012.3 hPa | 0 mm | - | - | - |
| 1778165406 | 13.33° C | 96% | 1012.6 hPa | 0 mm | - | - | - |
| 1778160906 | 13.33° C | 100% | 1011.9 hPa | 0.25 mm | - | - | - |
| 1778160305 | 13.33° C | 100% | 1011.5 hPa | 0.25 mm | - | - | - |
| 1778160005 | 13.33° C | 100% | 1011.6 hPa | 0.25 mm | - | - | - |
| 1778157905 | 13.89° C | 100% | 1011.3 hPa | 0 mm | - | - | - |
| 1778156406 | 13.89° C | 100% | 1011.2 hPa | 0.51 mm | - | - | - |
| 1778155505 | 13.33° C | 100% | 1011.5 hPa | 0.51 mm | - | - | - |
| 1778154304 | 13.89° C | 100% | 1011.2 hPa | 0.76 mm | - | - | - |
| 1778153105 | 13.89° C | 100% | 1011.5 hPa | 0.76 mm | - | - | - |
| 1778152505 | 14.44° C | 100% | 1011.2 hPa | 0.51 mm | - | - | - |
| 1778147405 | 15° C | 100% | 1010.4 hPa | 0 mm | - | - | - |
| 1778146505 | 15.56° C | 100% | 1010.5 hPa | 0 mm | - | - | - |
| 1778145906 | 16.11° C | 100% | 1010.2 hPa | 0 mm | - | - | - |
| 1778144106 | 18.33° C | 100% | 1009.3 hPa | 0 mm | - | - | - |
| 1778139305 | 19.44° C | 97% | 1009.4 hPa | 0 mm | - | - | - |
| 1778138405 | 19.44° C | 96% | 1009.2 hPa | 0 mm | - | - | - |
| 1778137507 | 19.44° C | 97% | 1009.1 hPa | 0 mm | - | - | - |
| 1778135105 | 20° C | 96% | 1008.5 hPa | 0 mm | - | - | - |
| 1778134808 | 20° C | 95% | 1008.8 hPa | 0 mm | - | - | - |
| 1778132705 | 20° C | 94% | 1010 hPa | 0 mm | - | - | - |
| 1778129105 | 21.11° C | 86% | 1011 hPa | 0 mm | - | - | - |
| 1778123705 | 20° C | 89% | 1010.6 hPa | 0 mm | - | - | - |
| 1778123408 | 20° C | 89% | 1010.4 hPa | 0 mm | - | - | - |
* Rain latest hour (hover to see other rain measurements)
** Current wind speed in m/s (hover to see current wind gust speed)